Time,TemperatureF,DewpointF,PressureIn,WindDirection,WindDirectionDegrees,WindSpeedMPH,WindSpeedGustMPH,Humidity,HourlyPrecipIn,Conditions,Clouds,dailyrainin,SolarRadiationWatts/m^2,SoftwareType,DateUTC
2013-04-20 00:10:00,43.6,31.8,29.74,West,265,8.0,14.0,63,0.00,,,0.00,0,Wunderground v.1.15,2013-04-20 04:10:00,
2013-04-20 00:20:00,43.6,31.8,29.74,West,267,8.0,8.0,63,0.00,,,0.00,0,Wunderground v.1.15,2013-04-20 04:20:00,
2013-04-20 00:30:00,43.4,32.0,29.74,WNW,284,6.0,7.0,64,0.00,,,0.00,0,Wunderground v.1.15,2013-04-20 04:30:00,
2013-04-20 00:40:00,43.3,32.3,29.74,West,276,7.0,14.0,65,0.00,,,0.00,0,Wunderground v.1.15,2013-04-20 04:40:00,
2013-04-20 00:50:00,43.3,31.9,29.74,SW,236,8.0,12.0,64,0.00,,,0.00,0,Wunderground v.1.15,2013-04-20 04:50:00,
2013-04-20 01:00:00,43.3,32.3,29.74,WNW,290,8.0,8.0,65,0.00,,,0.00,0,Wunderground v.1.15,2013-04-20 05:00:00,
2013-04-20 01:10:00,43.2,32.2,29.74,West,276,8.0,10.0,65,0.00,,,0.00,0,Wunderground v.1.15,2013-04-20 05:10:00,
2013-04-20 01:20:00,43.1,32.1,29.74,SW,222,7.0,17.0,65,0.00,,,0.00,0,Wunderground v.1.15,2013-04-20 05:20:00,
2013-04-20 01:30:00,43.1,31.4,29.74,West,277,11.0,19.0,63,0.00,,,0.00,0,Wunderground v.1.15,2013-04-20 05:30:00,
2013-04-20 01:40:00,43.0,31.6,29.73,NW,322,8.0,8.0,64,0.00,,,0.00,0,Wunderground v.1.15,2013-04-20 05:40:00,
2013-04-20 01:50:00,42.8,31.5,29.73,West,273,5.0,7.0,64,0.00,,,0.00,0,Wunderground v.1.15,2013-04-20 05:50:00,
2013-04-20 02:00:00,42.7,31.4,29.73,West,261,5.0,10.0,64,0.00,,,0.00,0,Wunderground v.1.15,2013-04-20 06:00:00,
2013-04-20 02:10:00,42.8,31.1,29.73,West,267,7.0,7.0,63,0.00,,,0.00,0,Wunderground v.1.15,2013-04-20 06:10:00,
2013-04-20 02:20:00,42.7,31.4,29.72,West,277,4.0,5.0,64,0.00,,,0.00,0,Wunderground v.1.15,2013-04-20 06:20:00,
2013-04-20 02:30:00,42.7,31.0,29.72,WSW,242,6.0,11.0,63,0.00,,,0.00,0,Wunderground v.1.15,2013-04-20 06:30:00,
2013-04-20 02:40:00,42.7,30.6,29.72,WNW,296,8.0,8.0,62,0.00,,,0.00,0,Wunderground v.1.15,2013-04-20 06:40:00,
2013-04-20 02:50:00,42.7,30.6,29.72,WNW,303,8.0,8.0,62,0.00,,,0.00,0,Wunderground v.1.15,2013-04-20 06:50:00,
2013-04-20 03:00:00,42.7,30.6,29.72,SW,231,6.0,6.0,62,0.00,,,0.00,0,Wunderground v.1.15,2013-04-20 07:00:00,
2013-04-20 03:10:00,42.7,30.2,29.72,WSW,248,5.0,6.0,61,0.00,,,0.00,0,Wunderground v.1.15,2013-04-20 07:10:00,
2013-04-20 03:20:00,42.8,29.9,29.72,West,279,8.0,10.0,60,0.00,,,0.00,0,Wunderground v.1.15,2013-04-20 07:20:00,
2013-04-20 03:30:00,42.9,30.0,29.72,WSW,241,9.0,9.0,60,0.00,,,0.00,0,Wunderground v.1.15,2013-04-20 07:30:00,
2013-04-20 03:40:00,42.9,29.5,29.73,West,277,9.0,9.0,59,0.00,,,0.00,0,Wunderground v.1.15,2013-04-20 07:40:00,
2013-04-20 03:50:00,42.7,29.8,29.73,SW,226,7.0,7.0,60,0.00,,,0.00,0,Wunderground v.1.15,2013-04-20 07:50:00,
2013-04-20 04:00:00,42.4,29.9,29.73,West,271,8.0,8.0,61,0.00,,,0.00,0,Wunderground v.1.15,2013-04-20 08:00:00,
2013-04-20 04:10:00,42.0,30.3,29.74,WNW,284,7.0,7.0,63,0.00,,,0.00,0,Wunderground v.1.15,2013-04-20 08:10:00,
2013-04-20 04:20:00,41.8,30.9,29.73,WNW,299,6.0,6.0,65,0.00,,,0.00,0,Wunderground v.1.15,2013-04-20 08:20:00,
2013-04-20 04:30:00,41.5,31.0,29.74,West,259,7.0,7.0,66,0.00,,,0.00,0,Wunderground v.1.15,2013-04-20 08:30:00,
2013-04-20 04:40:00,41.3,31.2,29.74,West,267,7.0,7.0,67,0.00,,,0.00,0,Wunderground v.1.15,2013-04-20 08:40:00,
2013-04-20 04:50:00,41.2,32.2,29.74,WNW,295,6.0,8.0,70,0.00,,,0.00,0,Wunderground v.1.15,2013-04-20 08:50:00,
2013-04-20 05:00:00,40.6,31.9,29.75,SW,215,13.0,13.0,71,0.00,,,0.00,0,Wunderground v.1.15,2013-04-20 09:00:00,
2013-04-20 05:10:00,40.1,31.8,29.75,WSW,255,8.0,8.0,72,0.00,,,0.00,0,Wunderground v.1.15,2013-04-20 09:10:00,
2013-04-20 05:20:00,39.6,31.7,29.75,SW,224,7.0,7.0,73,0.00,,,0.00,0,Wunderground v.1.15,2013-04-20 09:20:00,
2013-04-20 05:30:00,39.3,31.0,29.76,SW,229,7.0,7.0,72,0.00,,,0.00,0,Wunderground v.1.15,2013-04-20 09:30:00,
2013-04-20 05:40:00,39.1,30.8,29.76,WSW,254,6.0,10.0,72,0.00,,,0.00,0,Wunderground v.1.15,2013-04-20 09:40:00,
2013-04-20 05:50:00,39.1,30.8,29.76,WSW,238,7.0,8.0,72,0.00,,,0.00,0,Wunderground v.1.15,2013-04-20 09:50:00,
2013-04-20 06:00:00,39.1,30.5,29.76,West,279,7.0,7.0,71,0.00,,,0.00,0,Wunderground v.1.15,2013-04-20 10:00:00,
2013-04-20 06:10:00,39.1,30.5,29.77,WSW,245,6.0,7.0,71,0.00,,,0.00,0,Wunderground v.1.15,2013-04-20 10:10:00,
2013-04-20 06:20:00,39.2,30.6,29.77,SW,235,6.0,6.0,71,0.00,,,0.00,0,Wunderground v.1.15,2013-04-20 10:20:00,
2013-04-20 06:30:00,39.1,30.8,29.78,SW,236,6.0,6.0,72,0.00,,,0.00,7,Wunderground v.1.15,2013-04-20 10:30:00,
2013-04-20 06:40:00,39.0,30.7,29.78,SW,222,6.0,6.0,72,0.00,,,0.00,25,Wunderground v.1.15,2013-04-20 10:40:00,
2013-04-20 06:50:00,39.2,30.9,29.78,SW,230,6.0,11.0,72,0.00,,,0.00,28,Wunderground v.1.15,2013-04-20 10:50:00,
2013-04-20 07:00:00,39.5,31.6,29.79,SW,225,8.0,16.0,73,0.00,,,0.00,35,Wunderground v.1.15,2013-04-20 11:00:00,
2013-04-20 07:10:00,39.4,31.8,29.80,SW,229,9.0,9.0,74,0.00,,,0.00,51,Wunderground v.1.15,2013-04-20 11:10:00,
2013-04-20 07:20:00,39.5,32.2,29.80,WSW,252,7.0,7.0,75,0.00,,,0.00,132,Wunderground v.1.15,2013-04-20 11:20:00,
2013-04-20 07:30:00,39.9,32.3,29.81,WSW,246,8.0,13.0,74,0.00,,,0.00,83,Wunderground v.1.15,2013-04-20 11:30:00,
2013-04-20 07:40:00,39.8,32.2,29.81,SW,227,9.0,11.0,74,0.00,,,0.00,97,Wunderground v.1.15,2013-04-20 11:40:00,
2013-04-20 07:50:00,39.8,32.5,29.81,WSW,256,9.0,18.0,75,0.00,,,0.00,67,Wunderground v.1.15,2013-04-20 11:50:00,
2013-04-20 08:00:00,39.7,32.4,29.82,West,275,10.0,11.0,75,0.00,,,0.00,105,Wunderground v.1.15,2013-04-20 12:00:00,
2013-04-20 08:10:00,40.3,33.0,29.82,West,271,9.0,9.0,75,0.00,,,0.00,348,Wunderground v.1.15,2013-04-20 12:10:00,
2013-04-20 08:20:00,40.8,32.8,29.82,WSW,242,6.0,12.0,73,0.00,,,0.00,431,Wunderground v.1.15,2013-04-20 12:20:00,
2013-04-20 08:30:00,41.4,33.0,29.82,SW,217,7.0,7.0,72,0.00,,,0.00,132,Wunderground v.1.15,2013-04-20 12:30:00,
2013-04-20 08:40:00,40.9,32.6,29.82,NW,316,12.0,13.0,72,0.00,,,0.00,213,Wunderground v.1.15,2013-04-20 12:40:00,
2013-04-20 08:50:00,40.2,33.9,29.83,NW,309,11.0,11.0,78,0.00,,,0.00,239,Wunderground v.1.15,2013-04-20 12:50:00,
2013-04-20 09:00:00,41.0,33.7,29.83,WSW,257,7.0,7.0,75,0.00,,,0.00,425,Wunderground v.1.15,2013-04-20 13:00:00,
2013-04-20 09:10:00,42.0,32.9,29.83,SW,233,9.0,9.0,70,0.00,,,0.00,323,Wunderground v.1.15,2013-04-20 13:10:00,
2013-04-20 09:20:00,42.6,32.4,29.84,West,265,8.0,8.0,67,0.00,,,0.00,594,Wunderground v.1.15,2013-04-20 13:20:00,
2013-04-20 09:30:00,42.0,28.7,29.84,WNW,302,12.0,12.0,59,0.00,,,0.00,664,Wunderground v.1.15,2013-04-20 13:30:00,
2013-04-20 09:40:00,42.7,28.5,29.85,West,266,11.0,11.0,57,0.00,,,0.00,765,Wunderground v.1.15,2013-04-20 13:40:00,
2013-04-20 09:50:00,43.1,29.7,29.85,WNW,286,12.0,14.0,59,0.00,,,0.00,935,Wunderground v.1.15,2013-04-20 13:50:00,
2013-04-20 10:00:00,41.3,28.4,29.86,WSW,238,13.0,24.0,60,0.00,,,0.00,62,Wunderground v.1.15,2013-04-20 14:00:00,
2013-04-20 10:10:00,40.5,28.9,29.87,West,280,11.0,11.0,63,0.00,,,0.00,72,Wunderground v.1.15,2013-04-20 14:10:00,
2013-04-20 10:20:00,39.6,30.6,29.88,WNW,284,9.0,9.0,70,0.00,,,0.00,130,Wunderground v.1.15,2013-04-20 14:20:00,
2013-04-20 10:30:00,39.4,30.8,29.89,WNW,287,8.0,8.0,71,0.00,,,0.00,163,Wunderground v.1.15,2013-04-20 14:30:00,
2013-04-20 10:40:00,40.0,33.0,29.90,NW,306,8.0,11.0,76,0.00,,,0.00,309,Wunderground v.1.15,2013-04-20 14:40:00,
2013-04-20 10:50:00,38.3,32.4,29.91,NW,313,8.0,8.0,79,0.00,,,0.00,83,Wunderground v.1.15,2013-04-20 14:50:00,
2013-04-20 11:00:00,37.4,32.1,29.91,West,269,7.0,9.0,81,0.00,,,0.00,62,Wunderground v.1.15,2013-04-20 15:00:00,
2013-04-20 11:10:00,37.1,31.5,29.92,West,277,10.0,10.0,80,0.00,,,0.00,102,Wunderground v.1.15,2013-04-20 15:10:00,
2013-04-20 11:20:00,37.6,30.7,29.93,WNW,292,7.0,7.0,76,0.00,,,0.00,251,Wunderground v.1.15,2013-04-20 15:20:00,
2013-04-20 11:30:00,39.0,30.0,29.94,WNW,298,11.0,11.0,70,0.00,,,0.00,230,Wunderground v.1.15,2013-04-20 15:30:00,
2013-04-20 11:40:00,41.1,30.6,29.94,WSW,242,11.0,13.0,66,0.00,,,0.01,336,Wunderground v.1.15,2013-04-20 15:40:00,
2013-04-20 11:50:00,40.9,30.0,29.94,West,275,10.0,18.0,65,0.00,,,0.01,192,Wunderground v.1.15,2013-04-20 15:50:00,
2013-04-20 12:00:00,40.8,30.7,29.95,West,265,8.0,8.0,67,0.00,,,0.01,114,Wunderground v.1.15,2013-04-20 16:00:00,
2013-04-20 12:10:00,41.2,29.5,29.95,WNW,299,7.0,9.0,63,0.00,,,0.01,274,Wunderground v.1.15,2013-04-20 16:10:00,
2013-04-20 12:20:00,41.1,27.9,29.96,WSW,252,9.0,9.0,59,0.00,,,0.01,116,Wunderground v.1.15,2013-04-20 16:20:00,
2013-04-20 12:30:00,40.9,27.7,29.97,West,269,8.0,9.0,59,0.00,,,0.01,113,Wunderground v.1.15,2013-04-20 16:30:00,
2013-04-20 12:40:00,41.1,27.9,29.97,West,274,8.0,8.0,59,0.00,,,0.01,186,Wunderground v.1.15,2013-04-20 16:40:00,
2013-04-20 12:50:00,41.2,26.7,29.97,West,275,9.0,12.0,56,0.00,,,0.01,185,Wunderground v.1.15,2013-04-20 16:50:00,
2013-04-20 13:00:00,41.1,25.7,29.98,WNW,290,10.0,10.0,54,0.00,,,0.01,125,Wunderground v.1.15,2013-04-20 17:00:00,
2013-04-20 13:10:00,40.3,27.1,29.99,West,281,10.0,14.0,59,0.00,,,0.01,120,Wunderground v.1.15,2013-04-20 17:10:00,
2013-04-20 13:20:00,39.5,27.5,30.00,West,279,11.0,12.0,62,0.00,,,0.01,183,Wunderground v.1.15,2013-04-20 17:20:00,
2013-04-20 13:30:00,39.9,28.3,30.00,WNW,288,9.0,12.0,63,0.00,,,0.01,350,Wunderground v.1.15,2013-04-20 17:30:00,
2013-04-20 13:40:00,41.4,27.7,30.01,West,271,9.0,9.0,58,0.00,,,0.01,313,Wunderground v.1.15,2013-04-20 17:40:00,
2013-04-20 13:50:00,41.0,26.1,30.01,WNW,291,8.0,8.0,55,0.00,,,0.01,251,Wunderground v.1.15,2013-04-20 17:50:00,
2013-04-20 14:00:00,41.3,26.3,30.01,WNW,296,9.0,13.0,55,0.00,,,0.01,232,Wunderground v.1.15,2013-04-20 18:00:00,
2013-04-20 14:10:00,40.7,27.1,30.03,WNW,301,9.0,9.0,58,0.00,,,0.01,304,Wunderground v.1.15,2013-04-20 18:10:00,
2013-04-20 14:20:00,40.4,26.8,30.03,WNW,302,9.0,16.0,58,0.00,,,0.01,243,Wunderground v.1.15,2013-04-20 18:20:00,
2013-04-20 14:30:00,40.1,25.6,30.04,WNW,302,10.0,16.0,56,0.00,,,0.01,197,Wunderground v.1.15,2013-04-20 18:30:00,
2013-04-20 14:40:00,40.4,25.9,30.05,West,281,9.0,9.0,56,0.00,,,0.01,171,Wunderground v.1.15,2013-04-20 18:40:00,
2013-04-20 14:50:00,40.0,25.6,30.06,WNW,288,9.0,16.0,56,0.00,,,0.01,171,Wunderground v.1.15,2013-04-20 18:50:00,
2013-04-20 15:00:00,40.3,25.0,30.06,WNW,302,10.0,10.0,54,0.00,,,0.01,248,Wunderground v.1.15,2013-04-20 19:00:00,
2013-04-20 15:10:00,40.1,23.9,30.07,WSW,255,11.0,11.0,52,0.00,,,0.01,169,Wunderground v.1.15,2013-04-20 19:10:00,
2013-04-20 15:20:00,39.9,25.5,30.07,WNW,288,8.0,11.0,56,0.00,,,0.01,239,Wunderground v.1.15,2013-04-20 19:20:00,
2013-04-20 15:30:00,39.8,25.4,30.08,WNW,293,9.0,11.0,56,0.00,,,0.01,206,Wunderground v.1.15,2013-04-20 19:30:00,
2013-04-20 15:40:00,40.0,25.1,30.09,NW,310,9.0,9.0,55,0.00,,,0.01,207,Wunderground v.1.15,2013-04-20 19:40:00,
2013-04-20 15:50:00,39.8,26.6,30.10,NW,319,11.0,15.0,59,0.00,,,0.01,262,Wunderground v.1.15,2013-04-20 19:50:00,
2013-04-20 16:00:00,39.6,26.0,30.11,West,260,9.0,16.0,58,0.00,,,0.01,190,Wunderground v.1.15,2013-04-20 20:00:00,
2013-04-20 16:10:00,40.3,26.7,30.11,WNW,283,10.0,10.0,58,0.00,,,0.01,329,Wunderground v.1.15,2013-04-20 20:10:00,
2013-04-20 16:20:00,39.6,25.6,30.11,NW,323,9.0,11.0,57,0.00,,,0.01,250,Wunderground v.1.15,2013-04-20 20:20:00,
2013-04-20 16:30:00,40.7,26.2,30.12,West,277,10.0,14.0,56,0.00,,,0.01,193,Wunderground v.1.15,2013-04-20 20:30:00,
2013-04-20 16:40:00,39.0,25.5,30.13,WNW,294,10.0,10.0,58,0.00,,,0.01,190,Wunderground v.1.15,2013-04-20 20:40:00,
2013-04-20 16:50:00,39.5,25.9,30.14,NW,317,11.0,15.0,58,0.00,,,0.01,301,Wunderground v.1.15,2013-04-20 20:50:00,
2013-04-20 17:00:00,39.1,26.0,30.15,NW,314,9.0,16.0,59,0.00,,,0.01,153,Wunderground v.1.15,2013-04-20 21:00:00,
2013-04-20 17:10:00,38.7,25.2,30.16,West,270,10.0,10.0,58,0.00,,,0.01,116,Wunderground v.1.15,2013-04-20 21:10:00,
2013-04-20 17:20:00,38.5,25.0,30.17,West,273,8.0,10.0,58,0.00,,,0.01,178,Wunderground v.1.15,2013-04-20 21:20:00,
2013-04-20 17:30:00,38.4,24.5,30.17,NW,313,9.0,14.0,57,0.00,,,0.01,125,Wunderground v.1.15,2013-04-20 21:30:00,
2013-04-20 17:40:00,38.3,24.0,30.18,WNW,294,10.0,10.0,56,0.00,,,0.01,121,Wunderground v.1.15,2013-04-20 21:40:00,
2013-04-20 17:50:00,38.2,23.9,30.18,WSW,254,10.0,10.0,56,0.00,,,0.01,137,Wunderground v.1.15,2013-04-20 21:50:00,
2013-04-20 18:00:00,38.5,24.1,30.19,NW,304,9.0,9.0,56,0.00,,,0.01,86,Wunderground v.1.15,2013-04-20 22:00:00,
2013-04-20 18:10:00,38.2,23.4,30.19,NW,309,7.0,7.0,55,0.00,,,0.01,86,Wunderground v.1.15,2013-04-20 22:10:00,
2013-04-20 18:20:00,37.9,22.7,30.20,West,271,11.0,11.0,54,0.00,,,0.01,107,Wunderground v.1.15,2013-04-20 22:20:00,
2013-04-20 18:30:00,37.8,22.6,30.21,NW,309,10.0,15.0,54,0.00,,,0.01,60,Wunderground v.1.15,2013-04-20 22:30:00,
2013-04-20 18:40:00,37.6,22.9,30.22,WNW,283,12.0,12.0,55,0.00,,,0.01,65,Wunderground v.1.15,2013-04-20 22:40:00,
2013-04-20 18:50:00,37.5,22.3,30.22,WNW,294,10.0,10.0,54,0.00,,,0.01,37,Wunderground v.1.15,2013-04-20 22:50:00,
2013-04-20 19:00:00,37.3,23.0,30.23,WSW,253,10.0,11.0,56,0.00,,,0.01,40,Wunderground v.1.15,2013-04-20 23:00:00,
2013-04-20 19:10:00,37.2,22.1,30.24,NW,310,9.0,9.0,54,0.00,,,0.01,42,Wunderground v.1.15,2013-04-20 23:10:00,
2013-04-20 19:20:00,37.2,21.2,30.24,WNW,298,10.0,11.0,52,0.00,,,0.01,35,Wunderground v.1.15,2013-04-20 23:20:00,
2013-04-20 19:30:00,36.9,21.8,30.25,North,351,7.0,7.0,54,0.00,,,0.01,32,Wunderground v.1.15,2013-04-20 23:30:00,
2013-04-20 19:40:00,36.7,21.6,30.26,WNW,296,7.0,9.0,54,0.00,,,0.01,18,Wunderground v.1.15,2013-04-20 23:40:00,
2013-04-20 19:50:00,36.4,21.8,30.27,WNW,302,7.0,7.0,55,0.00,,,0.01,9,Wunderground v.1.15,2013-04-20 23:50:00,
2013-04-20 20:00:00,36.0,22.2,30.28,NW,317,7.0,12.0,57,0.00,,,0.01,0,Wunderground v.1.15,2013-04-21 00:00:00,
2013-04-20 20:10:00,35.9,22.5,30.28,West,274,6.0,6.0,58,0.00,,,0.01,0,Wunderground v.1.15,2013-04-21 00:10:00,
2013-04-20 20:20:00,35.9,22.5,30.29,NW,311,7.0,7.0,58,0.00,,,0.01,0,Wunderground v.1.15,2013-04-21 00:20:00,
2013-04-20 20:30:00,35.6,22.7,30.30,WNW,300,5.0,5.0,59,0.00,,,0.01,0,Wunderground v.1.15,2013-04-21 00:30:00,
2013-04-20 20:40:00,35.5,23.0,30.31,WNW,283,4.0,8.0,60,0.00,,,0.01,0,Wunderground v.1.15,2013-04-21 00:40:00,
2013-04-20 20:50:00,35.4,23.7,30.32,West,279,4.0,4.0,62,0.00,,,0.01,0,Wunderground v.1.15,2013-04-21 00:50:00,
2013-04-20 21:00:00,35.6,23.5,30.32,NW,315,5.0,5.0,61,0.00,,,0.01,0,Wunderground v.1.15,2013-04-21 01:00:00,
2013-04-20 21:10:00,35.6,23.5,30.33,NW,304,5.0,8.0,61,0.00,,,0.01,0,Wunderground v.1.15,2013-04-21 01:10:00,
2013-04-20 21:20:00,35.5,23.0,30.34,NW,304,6.0,9.0,60,0.00,,,0.01,0,Wunderground v.1.15,2013-04-21 01:20:00,
2013-04-20 21:30:00,35.2,22.7,30.34,WNW,288,6.0,6.0,60,0.00,,,0.01,0,Wunderground v.1.15,2013-04-21 01:30:00,
2013-04-20 21:40:00,34.9,22.8,30.35,West,281,5.0,5.0,61,0.00,,,0.01,0,Wunderground v.1.15,2013-04-21 01:40:00,
2013-04-20 21:50:00,35.1,23.4,30.35,WNW,303,3.0,3.0,62,0.00,,,0.01,0,Wunderground v.1.15,2013-04-21 01:50:00,
2013-04-20 22:00:00,35.2,23.1,30.36,NW,304,4.0,4.0,61,0.00,,,0.01,0,Wunderground v.1.15,2013-04-21 02:00:00,
2013-04-20 22:10:00,35.0,23.7,30.36,WNW,291,4.0,4.0,63,0.00,,,0.01,0,Wunderground v.1.15,2013-04-21 02:10:00,
2013-04-20 22:20:00,35.0,23.3,30.36,WNW,284,4.0,4.0,62,0.00,,,0.01,0,Wunderground v.1.15,2013-04-21 02:20:00,
2013-04-20 22:30:00,34.8,23.5,30.37,West,278,4.0,5.0,63,0.00,,,0.01,0,Wunderground v.1.15,2013-04-21 02:30:00,
2013-04-20 22:40:00,34.7,23.4,30.37,West,278,3.0,6.0,63,0.00,,,0.01,0,Wunderground v.1.15,2013-04-21 02:40:00,
2013-04-20 22:50:00,34.6,23.7,30.37,West,275,3.0,3.0,64,0.00,,,0.01,0,Wunderground v.1.15,2013-04-21 02:50:00,
2013-04-20 23:00:00,34.4,23.1,30.38,WNW,300,4.0,4.0,63,0.00,,,0.01,0,Wunderground v.1.15,2013-04-21 03:00:00,
2013-04-20 23:10:00,34.1,23.2,30.38,WNW,291,4.0,4.0,64,0.00,,,0.01,0,Wunderground v.1.15,2013-04-21 03:10:00,
2013-04-20 23:20:00,34.1,23.6,30.39,WNW,297,4.0,4.0,65,0.00,,,0.01,0,Wunderground v.1.15,2013-04-21 03:20:00,
2013-04-20 23:30:00,34.3,23.4,30.39,NW,319,5.0,5.0,64,0.00,,,0.01,0,Wunderground v.1.15,2013-04-21 03:30:00,
2013-04-20 23:40:00,34.3,24.1,30.40,NW,308,4.0,6.0,66,0.00,,,0.01,0,Wunderground v.1.15,2013-04-21 03:40:00,
2013-04-20 23:50:00,34.4,24.9,30.40,NNW,327,6.0,6.0,68,0.00,,,0.01,0,Wunderground v.1.15,2013-04-21 03:50:00,